Location: Bad Salzschlirf
(50.3750°N, 9.3000°E)
Time: 05:43:32
(UTC+01:00)

ISS - Pass Details

Date: 20 February 2020
Orbit: 415 x 423 km, 51.6° (Epoch: 27 February)

Event Time Altitude Azimuth Distance (km) Brightness Sun altitude
Rises 06:40:45 0° 191° (SSW) 2,354 0.0 -7.9°
Reaches altitude 10° 06:43:58 10° 158° (SSE) 1,499 -0.5 -7.4°
Maximum altitude 06:45:12 12° 136° (SE) 1,405 -0.2 -7.2°
Drops below altitude 10° 06:46:27 10° 114° (ESE) 1,504 0.6 -7.0°
Sets 06:49:42 0° 81° (E) 2,376 1.7 -6.5°
